カタログに戻る

COSMOS 1275 DEB

運用中PO
NORAD 12675·DEBRIS·🇷🇺 Russia

打ち上げ Jun 4, 1981 から Plesetsk Cosmodrome

Loading…

次のパス (今後24時間)

TLE

最新Source: Space-Track

元期: Sep 14, 2026, 06:55 UTC

1 12675U 81053AF  26257.28823885  .00000484  00000-0  43625-3 0  9993
2 12675  82.9382 195.4984 0066479  34.2428 117.2676 13.81066371260846

AllMySatでCOSMOS 1275 DEBをリアルタイム追跡

Download on the App Store